Time,TemperatureF,DewpointF,PressureIn,WindDirection,WindDirectionDegrees,WindSpeedMPH,WindSpeedGustMPH,Humidity,HourlyPrecipIn,Conditions,Clouds,dailyrainin,SoftwareType,DateUTC
2013-06-15 00:06:00,53.1,50.0,29.98,NW,317,2.0,-999.0,88,-99.99,,,0.00,weatherlink.com 1.10,2013-06-15 04:06:00,
2013-06-15 00:21:00,53.2,50.0,29.96,NW,318,3.0,-999.0,88,-99.99,,,0.00,weatherlink.com 1.10,2013-06-15 04:21:00,
2013-06-15 00:36:00,53.6,50.0,29.96,NW,317,2.0,-999.0,86,-99.99,,,0.00,weatherlink.com 1.10,2013-06-15 04:36:00,
2013-06-15 00:51:00,53.3,50.0,29.97,NW,318,2.0,-999.0,87,-99.99,,,0.00,weatherlink.com 1.10,2013-06-15 04:51:00,
2013-06-15 01:06:00,53.5,50.0,29.97,NW,317,2.0,-999.0,87,-99.99,,,0.00,weatherlink.com 1.10,2013-06-15 05:06:00,
2013-06-15 01:21:00,53.1,48.0,29.97,NW,317,2.0,-999.0,84,-99.99,,,0.00,weatherlink.com 1.10,2013-06-15 05:21:00,
2013-06-15 01:36:00,53.5,48.0,29.97,NW,317,2.0,-999.0,80,-99.99,,,0.00,weatherlink.com 1.10,2013-06-15 05:36:00,
2013-06-15 01:51:00,52.9,48.0,29.97,NW,317,2.0,-999.0,82,-99.99,,,0.00,weatherlink.com 1.10,2013-06-15 05:51:00,
2013-06-15 02:06:00,52.8,49.0,29.97,NW,317,2.0,-999.0,86,-99.99,,,0.00,weatherlink.com 1.10,2013-06-15 06:06:00,
2013-06-15 02:21:00,52.6,49.0,29.97,NW,317,2.0,-999.0,88,-99.99,,,0.00,weatherlink.com 1.10,2013-06-15 06:21:00,
2013-06-15 02:36:00,52.9,49.0,29.96,NW,317,1.0,-999.0,85,-99.99,,,0.00,weatherlink.com 1.10,2013-06-15 06:36:00,
2013-06-15 02:51:00,52.5,48.0,29.97,NW,317,1.0,-999.0,85,-99.99,,,0.00,weatherlink.com 1.10,2013-06-15 06:51:00,
2013-06-15 03:06:00,52.9,47.0,29.96,NW,317,2.0,-999.0,80,-99.99,,,0.00,weatherlink.com 1.10,2013-06-15 07:06:00,
2013-06-15 03:21:00,52.8,48.0,29.95,NW,317,3.0,-999.0,83,-99.99,,,0.00,weatherlink.com 1.10,2013-06-15 07:21:00,
2013-06-15 03:36:00,52.3,48.0,29.94,NW,317,2.0,-999.0,84,-99.99,,,0.00,weatherlink.com 1.10,2013-06-15 07:36:00,
2013-06-15 03:51:00,52.3,46.0,29.95,NW,317,3.0,-999.0,80,-99.99,,,0.00,weatherlink.com 1.10,2013-06-15 07:51:00,
2013-06-15 04:06:00,52.3,46.0,29.95,NW,317,1.0,-999.0,80,-99.99,,,0.00,weatherlink.com 1.10,2013-06-15 08:06:00,
2013-06-15 04:21:00,52.0,46.0,29.95,NW,317,1.0,-999.0,80,-99.99,,,0.00,weatherlink.com 1.10,2013-06-15 08:21:00,
2013-06-15 04:36:00,52.0,46.0,29.95,NW,317,2.0,-999.0,80,-99.99,,,0.00,weatherlink.com 1.10,2013-06-15 08:36:00,
2013-06-15 04:51:00,52.6,47.0,29.96,NW,317,2.0,-999.0,80,-99.99,,,0.00,weatherlink.com 1.10,2013-06-15 08:51:00,
2013-06-15 05:06:00,52.6,45.0,29.96,NW,317,2.0,-999.0,76,-99.99,,,0.00,weatherlink.com 1.10,2013-06-15 09:06:00,
2013-06-15 05:21:00,52.3,45.0,29.98,NW,317,1.0,-999.0,75,-99.99,,,0.00,weatherlink.com 1.10,2013-06-15 09:21:00,
2013-06-15 05:36:00,53.5,44.0,29.99,NW,317,3.0,-999.0,71,-99.99,,,0.00,weatherlink.com 1.10,2013-06-15 09:36:00,
2013-06-15 05:51:00,52.9,44.0,29.99,NW,317,2.0,-999.0,73,-99.99,,,0.00,weatherlink.com 1.10,2013-06-15 09:51:00,
2013-06-15 06:06:00,52.9,44.0,30.00,WNW,295,2.0,-999.0,72,-99.99,,,0.00,weatherlink.com 1.10,2013-06-15 10:06:00,
2013-06-15 06:21:00,53.2,45.0,30.00,West,262,2.0,-999.0,73,-99.99,,,0.00,weatherlink.com 1.10,2013-06-15 10:21:00,
2013-06-15 06:36:00,52.9,45.0,30.00,WSW,252,0.0,-999.0,75,-99.99,,,0.00,weatherlink.com 1.10,2013-06-15 10:36:00,
2013-06-15 06:51:00,53.6,46.0,30.01,WSW,252,0.0,-999.0,75,-99.99,,,0.00,weatherlink.com 1.10,2013-06-15 10:51:00,
2013-06-15 07:06:00,54.8,46.0,30.00,SW,227,0.0,-999.0,73,-99.99,,,0.00,weatherlink.com 1.10,2013-06-15 11:06:00,
2013-06-15 07:21:00,56.2,48.0,30.01,SW,222,1.0,-999.0,73,-99.99,,,0.00,weatherlink.com 1.10,2013-06-15 11:21:00,
2013-06-15 07:36:00,56.7,48.0,30.00,WSW,244,3.0,-999.0,73,-99.99,,,0.00,weatherlink.com 1.10,2013-06-15 11:36:00,
2013-06-15 07:51:00,58.3,49.0,30.01,WSW,249,0.0,-999.0,71,-99.99,,,0.00,weatherlink.com 1.10,2013-06-15 11:51:00,
2013-06-15 08:06:00,59.0,49.0,30.00,SW,234,3.0,-999.0,70,-99.99,,,0.00,weatherlink.com 1.10,2013-06-15 12:06:00,
2013-06-15 08:21:00,59.2,50.0,30.02,South,183,0.0,-999.0,72,-99.99,,,0.00,weatherlink.com 1.10,2013-06-15 12:21:00,
2013-06-15 08:36:00,59.9,51.0,30.02,WSW,247,0.0,-999.0,72,-99.99,,,0.00,weatherlink.com 1.10,2013-06-15 12:36:00,
2013-06-15 08:51:00,60.2,50.0,30.03,SW,236,4.0,-999.0,69,-99.99,,,0.00,weatherlink.com 1.10,2013-06-15 12:51:00,
2013-06-15 09:07:00,61.0,51.0,30.04,SW,234,1.0,-999.0,70,-99.99,,,0.00,weatherlink.com 1.10,2013-06-15 13:07:00,
2013-06-15 09:22:00,62.6,53.0,30.02,NW,308,1.0,-999.0,70,-99.99,,,0.00,weatherlink.com 1.10,2013-06-15 13:22:00,
2013-06-15 09:37:00,63.7,54.0,30.02,WSW,258,3.0,-999.0,71,-99.99,,,0.00,weatherlink.com 1.10,2013-06-15 13:37:00,
2013-06-15 09:52:00,63.9,54.0,30.02,ENE,71,0.0,-999.0,69,-99.99,,,0.00,weatherlink.com 1.10,2013-06-15 13:52:00,
2013-06-15 10:07:00,63.9,54.0,30.02,NW,319,3.0,-999.0,71,-99.99,,,0.00,weatherlink.com 1.10,2013-06-15 14:07:00,
2013-06-15 10:22:00,64.5,52.0,30.02,SW,225,0.0,-999.0,65,-99.99,,,0.00,weatherlink.com 1.10,2013-06-15 14:22:00,
2013-06-15 10:37:00,65.3,55.0,30.02,WSW,250,3.0,-999.0,69,-99.99,,,0.00,weatherlink.com 1.10,2013-06-15 14:37:00,
2013-06-15 10:52:00,65.6,55.0,30.01,WNW,296,3.0,-999.0,69,-99.99,,,0.00,weatherlink.com 1.10,2013-06-15 14:52:00,
2013-06-15 11:07:00,64.8,54.0,30.01,SSW,211,3.0,-999.0,68,-99.99,,,0.00,weatherlink.com 1.10,2013-06-15 15:07:00,
2013-06-15 11:22:00,66.0,55.0,30.02,North,355,0.0,-999.0,67,-99.99,,,0.00,weatherlink.com 1.10,2013-06-15 15:22:00,
2013-06-15 11:37:00,66.3,55.0,30.01,SW,223,6.0,-999.0,68,-99.99,,,0.00,weatherlink.com 1.10,2013-06-15 15:37:00,
2013-06-15 11:52:00,66.6,56.0,30.01,SW,235,0.0,-999.0,68,-99.99,,,0.00,weatherlink.com 1.10,2013-06-15 15:52:00,
2013-06-15 12:07:00,67.3,55.0,30.00,ESE,117,2.0,-999.0,64,-99.99,,,0.00,weatherlink.com 1.10,2013-06-15 16:07:00,
2013-06-15 12:22:00,68.3,56.0,30.00,SE,143,0.0,-999.0,65,-99.99,,,0.00,weatherlink.com 1.10,2013-06-15 16:22:00,
2013-06-15 12:37:00,66.3,54.0,30.01,West,281,0.0,-999.0,64,-99.99,,,0.00,weatherlink.com 1.10,2013-06-15 16:37:00,
2013-06-15 12:52:00,64.5,54.0,30.01,WSW,237,3.0,-999.0,68,-99.99,,,0.00,weatherlink.com 1.10,2013-06-15 16:52:00,
2013-06-15 13:07:00,65.0,52.0,30.02,NNE,32,0.0,-999.0,64,-99.99,,,0.00,weatherlink.com 1.10,2013-06-15 17:07:00,
2013-06-15 13:22:00,65.0,53.0,30.02,SW,229,2.0,-999.0,65,-99.99,,,0.00,weatherlink.com 1.10,2013-06-15 17:22:00,
2013-06-15 13:37:00,67.6,56.0,30.02,SE,140,0.0,-999.0,67,-99.99,,,0.00,weatherlink.com 1.10,2013-06-15 17:37:00,
2013-06-15 13:52:00,66.0,55.0,30.00,SE,140,0.0,-999.0,68,-99.99,,,0.00,weatherlink.com 1.10,2013-06-15 17:52:00,
2013-06-15 14:07:00,65.2,56.0,30.02,SE,140,0.0,-999.0,71,-99.99,,,0.00,weatherlink.com 1.10,2013-06-15 18:07:00,
2013-06-15 14:22:00,65.2,56.0,30.01,SE,140,0.0,-999.0,72,-99.99,,,0.00,weatherlink.com 1.10,2013-06-15 18:22:00,
2013-06-15 14:37:00,65.6,55.0,30.02,SE,140,0.0,-999.0,68,-99.99,,,0.00,weatherlink.com 1.10,2013-06-15 18:37:00,
2013-06-15 14:52:00,66.3,56.0,30.01,SE,131,0.0,-999.0,70,-99.99,,,0.00,weatherlink.com 1.10,2013-06-15 18:52:00,
2013-06-15 15:07:00,67.4,58.0,30.00,NE,51,0.0,-999.0,71,-99.99,,,0.00,weatherlink.com 1.10,2013-06-15 19:07:00,
2013-06-15 15:22:00,69.4,58.0,29.99,ENE,72,0.0,-999.0,68,-99.99,,,0.00,weatherlink.com 1.10,2013-06-15 19:22:00,
2013-06-15 15:37:00,67.4,55.0,29.99,NNE,33,0.0,-999.0,65,-99.99,,,0.00,weatherlink.com 1.10,2013-06-15 19:37:00,
2013-06-15 15:52:00,66.1,56.0,30.00,NNE,33,0.0,-999.0,71,-99.99,,,0.00,weatherlink.com 1.10,2013-06-15 19:52:00,
2013-06-15 16:07:00,66.1,56.0,30.00,NNE,33,0.0,-999.0,70,-99.99,,,0.00,weatherlink.com 1.10,2013-06-15 20:07:00,
2013-06-15 16:22:00,66.4,57.0,30.00,NNE,33,0.0,-999.0,72,-99.99,,,0.00,weatherlink.com 1.10,2013-06-15 20:22:00,
2013-06-15 16:37:00,66.4,56.0,30.00,NNE,33,0.0,-999.0,70,-99.99,,,0.00,weatherlink.com 1.10,2013-06-15 20:37:00,
2013-06-15 16:52:00,66.6,57.0,30.00,NNE,33,0.0,-999.0,72,-99.99,,,0.00,weatherlink.com 1.10,2013-06-15 20:52:00,
2013-06-15 17:07:00,66.8,57.0,29.99,NNE,33,0.0,-999.0,70,-99.99,,,0.00,weatherlink.com 1.10,2013-06-15 21:07:00,
2013-06-15 17:22:00,67.9,57.0,29.98,NNE,33,0.0,-999.0,68,-99.99,,,0.00,weatherlink.com 1.10,2013-06-15 21:22:00,
2013-06-15 17:37:00,67.1,57.0,29.97,NNE,33,0.0,-999.0,71,-99.99,,,0.00,weatherlink.com 1.10,2013-06-15 21:37:00,
2013-06-15 17:52:00,66.8,58.0,29.96,NNE,33,0.0,-999.0,74,-99.99,,,0.00,weatherlink.com 1.10,2013-06-15 21:52:00,
2013-06-15 18:07:00,66.3,55.0,29.96,NE,34,0.0,-999.0,68,-99.99,,,0.00,weatherlink.com 1.10,2013-06-15 22:07:00,
2013-06-15 18:22:00,68.1,56.0,29.96,NW,313,0.0,-999.0,66,-99.99,,,0.00,weatherlink.com 1.10,2013-06-15 22:22:00,
2013-06-15 18:37:00,70.3,56.0,29.95,NE,42,0.0,-999.0,60,-99.99,,,0.00,weatherlink.com 1.10,2013-06-15 22:37:00,
2013-06-15 18:52:00,70.8,56.0,29.95,WSW,252,0.0,-999.0,60,-99.99,,,0.00,weatherlink.com 1.10,2013-06-15 22:52:00,
2013-06-15 19:07:00,69.3,54.0,29.95,ENE,78,0.0,-999.0,59,-99.99,,,0.00,weatherlink.com 1.10,2013-06-15 23:07:00,
2013-06-15 19:22:00,69.1,55.0,29.93,West,278,0.0,-999.0,62,-99.99,,,0.00,weatherlink.com 1.10,2013-06-15 23:22:00,
2013-06-15 19:37:00,67.1,53.0,29.93,WNW,282,0.0,-999.0,61,-99.99,,,0.00,weatherlink.com 1.10,2013-06-15 23:37:00,
2013-06-15 19:52:00,64.2,54.0,29.95,West,267,3.0,-999.0,69,-99.99,,,0.00,weatherlink.com 1.10,2013-06-15 23:52:00,
2013-06-15 20:07:00,63.9,55.0,29.96,WNW,288,2.0,-999.0,72,-99.99,,,0.00,weatherlink.com 1.10,2013-06-16 00:07:00,
2013-06-15 20:22:00,62.0,54.0,29.96,West,271,0.0,-999.0,74,-99.99,,,0.00,weatherlink.com 1.10,2013-06-16 00:22:00,
2013-06-15 20:37:00,62.0,54.0,29.95,WNW,287,3.0,-999.0,74,-99.99,,,0.00,weatherlink.com 1.10,2013-06-16 00:37:00,
2013-06-15 20:52:00,60.9,54.0,29.97,WNW,287,1.0,-999.0,78,-99.99,,,0.00,weatherlink.com 1.10,2013-06-16 00:52:00,
2013-06-15 21:07:00,62.1,54.0,29.97,WSW,254,3.0,-999.0,75,-99.99,,,0.00,weatherlink.com 1.10,2013-06-16 01:07:00,
2013-06-15 21:22:00,61.0,56.0,29.94,WSW,254,2.0,-999.0,82,-99.99,,,0.00,weatherlink.com 1.10,2013-06-16 01:22:00,
2013-06-15 21:37:00,61.8,55.0,29.94,West,276,3.0,-999.0,77,-99.99,,,0.00,weatherlink.com 1.10,2013-06-16 01:37:00,
2013-06-15 21:52:00,62.3,55.0,29.94,SW,229,0.0,-999.0,77,-99.99,,,0.00,weatherlink.com 1.10,2013-06-16 01:52:00,
2013-06-15 22:07:00,61.8,55.0,29.97,NW,325,1.0,-999.0,79,-99.99,,,0.00,weatherlink.com 1.10,2013-06-16 02:07:00,
2013-06-15 22:22:00,61.2,56.0,29.96,WSW,249,0.0,-999.0,82,-99.99,,,0.00,weatherlink.com 1.10,2013-06-16 02:22:00,
2013-06-15 22:37:00,60.5,56.0,29.96,NNW,333,0.0,-999.0,84,-99.99,,,0.00,weatherlink.com 1.10,2013-06-16 02:37:00,
2013-06-15 22:52:00,60.1,56.0,29.98,NNW,333,0.0,-999.0,86,-99.99,,,0.00,weatherlink.com 1.10,2013-06-16 02:52:00,
2013-06-15 23:07:00,59.9,56.0,29.98,NW,314,0.0,-999.0,87,-99.99,,,0.00,weatherlink.com 1.10,2013-06-16 03:07:00,
2013-06-15 23:22:00,60.2,56.0,29.97,NNW,327,0.0,-999.0,86,-99.99,,,0.00,weatherlink.com 1.10,2013-06-16 03:22:00,
2013-06-15 23:37:00,59.6,56.0,29.96,West,273,0.0,-999.0,88,-99.99,,,0.00,weatherlink.com 1.10,2013-06-16 03:37:00,
2013-06-15 23:52:00,60.1,56.0,29.98,West,266,1.0,-999.0,87,-99.99,,,0.00,weatherlink.com 1.10,2013-06-16 03:52:00,